Regional Weather Roundup
Issued by NWS

Home | Current Version | Previous Version | Graphics & Text | Print | Product List | Glossary On
Versions: 1 2 3 4 5 6 7 8 9 10 11 12 13 14 15 16 17 18 19 20 21 22 23 24 25 26 27
000
ASUS45 KBOU 260207
RWRCO

WEATHER ROUNDUP FOR COLORADO
NATIONAL WEATHER SERVICE DENVER/BOULDER CO
800 PM MDT SAT OCT 25 2014

NOTE: "FAIR" INDICATES FEW OR NO CLOUDS BELOW 12000 FEET WITH NO
SIGNIFICANT WEATHER AND/OR OBSTRUCTIONS TO VISIBILITY.

COZ001>005-013-030-031-260300-
...NORTHWEST COLORADO...

CITY           SKY/WX    TMP DP  RH WIND       PRES   REMARKS
CRAIG          MOCLDY    48  34  58 CALM      30.11S
HAYDEN         MOCLDY    55  23  28 SW6       30.13S
MEEKER         PTCLDY    53  33  46 CALM      30.13S
MOUNT WERNER   NOT AVBL
STEAMBOAT SPGS MOCLDY    59  20  22 SE3       30.15S
WALDEN         CLEAR     41  19  42 SE7       30.22F
$$

COZ006>008-011-260300-
...WEST CENTRAL VALLEYS...

CITY           SKY/WX    TMP DP  RH WIND       PRES   REMARKS
GRAND JUNCTION PTCLDY    59  31  34 NE7       30.07S
MONTROSE       PTCLDY    59  33  37 SE9       30.16R
EAGLE          PTCLDY    52  30  43 E9        30.18S
RIFLE          PTCLDY    60  34  37 SW3       30.09R
DELTA          PTCLDY    70  31  23 W6        30.11S
NUCLA          PTCLDY    63  32  31 CALM      30.21R
$$

COZ017>023-064>068-260300-
...SOUTHWEST COLORADO...

CITY           SKY/WX    TMP DP  RH WIND       PRES   REMARKS
DURANGO        CLEAR     53  36  52 N3        30.24S
CORTEZ         CLOUDY    52  38  58 E3        30.19R
PAGOSA SPRINGS CLEAR     49  32  51 CALM      30.32R
TELLURIDE      CLEAR     56  26  31 E7G17     30.37S
WOLF CREEK PAS CLEAR     39  25  56 SW28        N/A
$$

COZ009-010-012-014-032>034-037-058>063-260300-
...CENTRAL COLORADO...

CITY           SKY/WX    TMP DP  RH WIND       PRES   REMARKS
ASPEN          PTCLDY    47  28  47 S9        30.24S
BUENA VISTA    PTCLDY    50  19  28 W7        30.25R
COPPER MTN     NOT AVBL
BERTHOUD PASS  FAIR      39  36  87 NW7       30.52F
COTTONWOOD PAS PTCLDY    59   9  13 SW6       30.37S
GUNNISON       CLEAR     54  27  35 N7        30.27S
KREMMLING      PTCLDY    46  23  39 CALM        N/A
LEADVILLE      CLEAR     45  15  30 N5        30.35F
MONARCH PASS   CLEAR     43  19  39 W20G25    30.60F
SALIDA         NOT AVBL
SUNLIGHT       PTCLDY    45  28  53 CALM      30.42S
WILKERSON PASS NOT AVBL
$$

COZ069>075-260300-
...SAN LUIS VALLEY/SANGRE DE CRISTO MOUNTAINS...

CITY           SKY/WX    TMP DP  RH WIND       PRES   REMARKS
ALAMOSA        CLEAR     53  24  32 SW9       30.25R
LA VETA PASS   NOT AVBL
SAGUACHE       CLEAR     52  23  32 N10       30.26S
$$

COZ035-036-038>040-260300-
...NORTHERN COLORADO FRONT RANGE...

CITY           SKY/WX    TMP DP  RH WIND       PRES   REMARKS
DENVER INTL AP CLEAR     61  25  25 E7        30.04S
DMNS CITY PARK   N/A     58  25  28 W3        30.03S
AURORA         CLEAR     59  25  27 SE8       30.06S
FRONT RANGE AP NOT AVBL
ERIE MUNI ARPT CLEAR     55  28  36 CALM      30.03F
BOULDER MUN AP CLEAR     63  27  25 CALM      30.04F
CENTENNIAL     CLEAR     64  23  21 S15       30.06S
BROOMFIELD     CLEAR     68  21  17 NW3       30.07S
FORT COLLINS   CLEAR     61  27  27 S5        30.04F
LONGMONT       CLEAR     55  30  37 W6        30.05F
$$

COZ041-046-047-076>085-087-088-260300-
...PIKES PEAK/PALMER DIVIDE AND SOUTHERN FOOTHILLS...

CITY           SKY/WX    TMP DP  RH WIND       PRES   REMARKS
COLO. SPRINGS  CLEAR     64  22  20 SW8       30.12F
A. F. ACADEMY  CLEAR     59  23  24 NE3       30.13F
ELLICOTT       NOT AVBL
FALCON         CLEAR     58  21  24 SW7       30.17S
FORT CARSON    CLEAR     64  24  21 W9        30.09F
LIMON          CLEAR     49  34  56 CALM      30.06F
MONUMENT HILL  CLEAR     55  21  26 S13       30.15S
TRINIDAD       CLEAR     62  28  27 SW3       30.10R
$$

COZ042>045-048>051-090-091-260300-
...NORTHEAST COLORADO...

CITY           SKY/WX    TMP DP  RH WIND       PRES   REMARKS
GREELEY ARPT   CLEAR     59  27  29 NE5       30.02F
AKRON          CLEAR     58  35  42 E8        30.02S
BURLINGTON     CLEAR     61  38  42 S10       30.00F
WRAY           CLEAR     61  35  37 NE5       29.98F
STERLING       CLEAR     63  37  39 CALM      29.99S HAZE
HOLYOKE        CLEAR     54  37  54 E5        29.99S
FORT MORGAN    CLEAR     57  29  34 NE9       30.02S
$$

COZ086-089-092>099-260300-
...SOUTHEAST COLORADO...

CITY           SKY/WX    TMP DP  RH WIND       PRES   REMARKS
PUEBLO         CLEAR     64  27  24 E6        30.01F
LA JUNTA       CLEAR     66  33  29 E7        29.98F
LAMAR          CLEAR     62  39  42 CALM      29.94F
SPRINGFIELD      N/A     56  34  43 SW7       30.02F
$$



USA.gov is the U.S. government's official web portal to all federal, state and local government web resources and services.